172P/Yeung (2017)

Japanese version
Home page
Updated on August 10, 2016

---------------------------------------------------------------------

* Profile

* Pictures

* Orbital Elements

Epoch 2017 Mar. 28.0 TT = JDT 2457840.5
T 2017 Mar. 13.11471 TT                                 MPCW
q   3.3369413            (2000.0)            P               Q
n   0.11414274     Peri.  209.12783     -0.50452960     +0.85757867
a   4.2089186      Node    30.88944     -0.74962243     -0.37760360
e   0.2071737      Incl.   11.23720     -0.42838779     -0.34924827
P   8.63
From 370 observations 1993 Oct. 20-2015 Mar. 23, mean residual 0".5.

* Magnitudes Graph

        H = 14.0  G = 0.15

---------------------------------------------------------------------

The orbital elements are published on M.P.E.C. 2015-G03.
The magnitudes graphs are made with Comet for Windows.

---------------------------------------------------------------------

Copyright(C) Seiichi Yoshida (comet@aerith.net). All rights reserved.